owner,sensor,date,latitude,longitude,vertical_datum,mass_concentration_of_oxygen_in_sea_water,qcFlag 
SCCF RECON,ioos:station:SCCF:18:1,2017-03-01T00:00:00Z,26.6955,-81.8138,1.59,7.16,1111122 
SCCF RECON,ioos:station:SCCF:18:1,2017-03-01T01:00:00Z,26.6955,-81.8138,1.5,7.36,1111122 
SCCF RECON,ioos:station:SCCF:18:1,2017-03-01T02:00:00Z,26.6955,-81.8138,1.43,7.37,1111122 
SCCF RECON,ioos:station:SCCF:18:1,2017-03-01T03:00:00Z,26.6955,-81.8138,1.38,7.02,1111122 
SCCF RECON,ioos:station:SCCF:18:1,2017-03-01T04:00:00Z,26.6955,-81.8138,1.34,6.84,1111122 
SCCF RECON,ioos:station:SCCF:18:1,2017-03-01T05:00:00Z,26.6955,-81.8138,1.299,6.83,1111122 
SCCF RECON,ioos:station:SCCF:18:1,2017-03-01T06:00:00Z,26.6955,-81.8138,1.302,6.45,1111122 
SCCF RECON,ioos:station:SCCF:18:1,2017-03-01T07:00:00Z,26.6955,-81.8138,1.39,6.6,1111122 
SCCF RECON,ioos:station:SCCF:18:1,2017-03-01T08:00:00Z,26.6955,-81.8138,1.48,6.35,1111122 
SCCF RECON,ioos:station:SCCF:18:1,2017-03-01T09:00:00Z,26.6955,-81.8138,1.53,6.42,1111122 
SCCF RECON,ioos:station:SCCF:18:1,2017-03-01T10:00:00Z,26.6955,-81.8138,1.57,6.39,1111122 
SCCF RECON,ioos:station:SCCF:18:1,2017-03-01T11:00:00Z,26.6955,-81.8138,1.61,6.39,1111122 
SCCF RECON,ioos:station:SCCF:18:1,2017-03-01T12:00:00Z,26.6955,-81.8138,1.58,6.47,1111122 
SCCF RECON,ioos:station:SCCF:18:1,2017-03-01T13:00:00Z,26.6955,-81.8138,1.508,6.55,1111122 
SCCF RECON,ioos:station:SCCF:18:1,2017-03-01T14:00:00Z,26.6955,-81.8138,1.436,6.3,1111122 
SCCF RECON,ioos:station:SCCF:18:1,2017-03-01T15:00:00Z,26.6955,-81.8138,1.4,6.41,1111122 
SCCF RECON,ioos:station:SCCF:18:1,2017-03-01T16:00:00Z,26.6955,-81.8138,1.355,6.67,1111122 
SCCF RECON,ioos:station:SCCF:18:1,2017-03-01T17:00:00Z,26.6955,-81.8138,1.3,6.82,1111122 
SCCF RECON,ioos:station:SCCF:18:1,2017-03-01T18:00:00Z,26.6955,-81.8138,1.28,6.57,1111122 
SCCF RECON,ioos:station:SCCF:18:1,2017-03-01T19:00:00Z,26.6955,-81.8138,1.349,7.02,1111122 
SCCF RECON,ioos:station:SCCF:18:1,2017-03-01T20:00:00Z,26.6955,-81.8138,1.44,7.1,1111122 
SCCF RECON,ioos:station:SCCF:18:1,2017-03-01T21:00:00Z,26.6955,-81.8138,1.512,6.94,1111122 
SCCF RECON,ioos:station:SCCF:18:1,2017-03-01T22:00:00Z,26.6955,-81.8138,1.58,7.09,1111122 
SCCF RECON,ioos:station:SCCF:18:1,2017-03-01T23:00:00Z,26.6955,-81.8138,1.59,6.78,1111122 
SCCF RECON,ioos:station:SCCF:18:1,2017-03-02T00:00:00Z,26.6955,-81.8138,1.591,6.95,1111122 
SCCF RECON,ioos:station:SCCF:18:1,2017-03-02T01:00:00Z,26.6955,-81.8138,1.52,7.07,1111122 
SCCF RECON,ioos:station:SCCF:18:1,2017-03-02T02:00:00Z,26.6955,-81.8138,1.445,6.92,1111122 
SCCF RECON,ioos:station:SCCF:18:1,2017-03-02T03:00:00Z,26.6955,-81.8138,1.38,6.81,1111122 
SCCF RECON,ioos:station:SCCF:18:1,2017-03-02T04:00:00Z,26.6955,-81.8138,1.34,6.81,1111122 
SCCF RECON,ioos:station:SCCF:18:1,2017-03-02T05:00:00Z,26.6955,-81.8138,1.29,6.81,1111122 
SCCF RECON,ioos:station:SCCF:18:1,2017-03-02T06:00:00Z,26.6955,-81.8138,1.25,6.7,1111122 
SCCF RECON,ioos:station:SCCF:18:1,2017-03-02T07:00:00Z,26.6955,-81.8138,1.288,6.55,1111122 
SCCF RECON,ioos:station:SCCF:18:1,2017-03-02T08:00:00Z,26.6955,-81.8138,1.363,6.24,1111122 
SCCF RECON,ioos:station:SCCF:18:1,2017-03-02T09:00:00Z,26.6955,-81.8138,1.449,5.96,1111122 
SCCF RECON,ioos:station:SCCF:18:1,2017-03-02T10:00:00Z,26.6955,-81.8138,1.488,5.91,1111122 
SCCF RECON,ioos:station:SCCF:18:1,2017-03-02T11:00:00Z,26.6955,-81.8138,1.53,5.93,1111122 
SCCF RECON,ioos:station:SCCF:18:1,2017-03-02T12:00:00Z,26.6955,-81.8138,1.56,5.84,1111122 
SCCF RECON,ioos:station:SCCF:18:1,2017-03-02T13:00:00Z,26.6955,-81.8138,1.53,6.11,1111122 
SCCF RECON,ioos:station:SCCF:18:1,2017-03-02T14:00:00Z,26.6955,-81.8138,1.452,5.97,1111122 
SCCF RECON,ioos:station:SCCF:18:1,2017-03-02T15:00:00Z,26.6955,-81.8138,1.396,5.83,1111122 
SCCF RECON,ioos:station:SCCF:18:1,2017-03-02T16:00:00Z,26.6955,-81.8138,1.364,6.02,1111122 
SCCF RECON,ioos:station:SCCF:18:1,2017-03-02T17:00:00Z,26.6955,-81.8138,1.331,6.07,1111122 
SCCF RECON,ioos:station:SCCF:18:1,2017-03-02T18:00:00Z,26.6955,-81.8138,1.312,6.09,1111122 
SCCF RECON,ioos:station:SCCF:18:1,2017-03-02T19:00:00Z,26.6955,-81.8138,1.39,6.72,1111122 
SCCF RECON,ioos:station:SCCF:18:1,2017-03-02T20:00:00Z,26.6955,-81.8138,1.458,6.21,1111122 
SCCF RECON,ioos:station:SCCF:18:1,2017-03-02T21:00:00Z,26.6955,-81.8138,1.53,6.08,1111122 
SCCF RECON,ioos:station:SCCF:18:1,2017-03-02T22:00:00Z,26.6955,-81.8138,1.59,6.6,1111122 
SCCF RECON,ioos:station:SCCF:18:1,2017-03-02T23:00:00Z,26.6955,-81.8138,1.63,6.47,1111122 
SCCF RECON,ioos:station:SCCF:18:1,2017-03-03T00:00:00Z,26.6955,-81.8138,1.653,6.63,1111122 
SCCF RECON,ioos:station:SCCF:18:1,2017-03-03T01:00:00Z,26.6955,-81.8138,1.61,6.65,1111122 
SCCF RECON,ioos:station:SCCF:18:1,2017-03-03T02:00:00Z,26.6955,-81.8138,1.53,6.8,1111122 
SCCF RECON,ioos:station:SCCF:18:1,2017-03-03T03:00:00Z,26.6955,-81.8138,1.47,6.91,1111122 
SCCF RECON,ioos:station:SCCF:18:1,2017-03-03T04:00:00Z,26.6955,-81.8138,1.42,6.53,1111122 
SCCF RECON,ioos:station:SCCF:18:1,2017-03-03T05:00:00Z,26.6955,-81.8138,1.368,6.47,1111122 
SCCF RECON,ioos:station:SCCF:18:1,2017-03-03T06:00:00Z,26.6955,-81.8138,1.31,6.58,1111122 
SCCF RECON,ioos:station:SCCF:18:1,2017-03-03T07:00:00Z,26.6955,-81.8138,1.231,6.22,1111122 
SCCF RECON,ioos:station:SCCF:18:1,2017-03-03T08:00:00Z,26.6955,-81.8138,1.19,6.14,1111122 
SCCF RECON,ioos:station:SCCF:18:1,2017-03-03T09:00:00Z,26.6955,-81.8138,1.205,6.17,1111122 
SCCF RECON,ioos:station:SCCF:18:1,2017-03-03T10:00:00Z,26.6955,-81.8138,1.276,5.98,1111122 
SCCF RECON,ioos:station:SCCF:18:1,2017-03-03T11:00:00Z,26.6955,-81.8138,1.36,5.98,1111122 
SCCF RECON,ioos:station:SCCF:18:1,2017-03-03T12:00:00Z,26.6955,-81.8138,1.398,5.75,1111122 
SCCF RECON,ioos:station:SCCF:18:1,2017-03-03T13:00:00Z,26.6955,-81.8138,1.38,6.22,1111122 
SCCF RECON,ioos:station:SCCF:18:1,2017-03-03T14:00:00Z,26.6955,-81.8138,1.31,6.25,1111122 
SCCF RECON,ioos:station:SCCF:18:1,2017-03-03T15:00:00Z,26.6955,-81.8138,1.25,6.33,1111122 
SCCF RECON,ioos:station:SCCF:18:1,2017-03-03T16:00:00Z,26.6955,-81.8138,1.199,6.49,1111122 
SCCF RECON,ioos:station:SCCF:18:1,2017-03-03T17:00:00Z,26.6955,-81.8138,1.157,6.86,1111122 
SCCF RECON,ioos:station:SCCF:18:1,2017-03-03T18:00:00Z,26.6955,-81.8138,1.11,6.84,1111122 
SCCF RECON,ioos:station:SCCF:18:1,2017-03-03T19:00:00Z,26.6955,-81.8138,1.07,7.0,1111122 
SCCF RECON,ioos:station:SCCF:18:1,2017-03-03T20:00:00Z,26.6955,-81.8138,1.069,7.09,1111122 
SCCF RECON,ioos:station:SCCF:18:1,2017-03-03T21:00:00Z,26.6955,-81.8138,1.117,7.06,1111122 
SCCF RECON,ioos:station:SCCF:18:1,2017-03-03T22:00:00Z,26.6955,-81.8138,1.172,7.09,1111122 
SCCF RECON,ioos:station:SCCF:18:1,2017-03-03T23:00:00Z,26.6955,-81.8138,1.221,7.03,1111122 
SCCF RECON,ioos:station:SCCF:18:1,2017-03-04T00:00:00Z,26.6955,-81.8138,1.262,7.05,1111122 
SCCF RECON,ioos:station:SCCF:18:1,2017-03-04T01:00:00Z,26.6955,-81.8138,1.317,6.89,1111122 
SCCF RECON,ioos:station:SCCF:18:1,2017-03-04T02:00:00Z,26.6955,-81.8138,1.33,7.16,1111122 
SCCF RECON,ioos:station:SCCF:18:1,2017-03-04T03:00:00Z,26.6955,-81.8138,1.289,7.15,1111122 
SCCF RECON,ioos:station:SCCF:18:1,2017-03-04T04:00:00Z,26.6955,-81.8138,1.23,7.19,1111122 
SCCF RECON,ioos:station:SCCF:18:1,2017-03-04T05:00:00Z,26.6955,-81.8138,1.171,7.19,1111122 
SCCF RECON,ioos:station:SCCF:18:1,2017-03-04T06:00:00Z,26.6955,-81.8138,1.14,7.11,1111122 
SCCF RECON,ioos:station:SCCF:18:1,2017-03-04T07:00:00Z,26.6955,-81.8138,1.1,7.1,1111122 
SCCF RECON,ioos:station:SCCF:18:1,2017-03-04T08:00:00Z,26.6955,-81.8138,1.064,7.11,1111122 
SCCF RECON,ioos:station:SCCF:18:1,2017-03-04T09:00:00Z,26.6955,-81.8138,1.02,7.07,1111122 
SCCF RECON,ioos:station:SCCF:18:1,2017-03-04T10:00:00Z,26.6955,-81.8138,0.99,6.98,1111122 
SCCF RECON,ioos:station:SCCF:18:1,2017-03-04T11:00:00Z,26.6955,-81.8138,0.991,6.91,1111122 
SCCF RECON,ioos:station:SCCF:18:1,2017-03-04T12:00:00Z,26.6955,-81.8138,1.038,6.88,1111122 
SCCF RECON,ioos:station:SCCF:18:1,2017-03-04T13:00:00Z,26.6955,-81.8138,1.08,6.75,1111122 
SCCF RECON,ioos:station:SCCF:18:1,2017-03-04T14:00:00Z,26.6955,-81.8138,1.095,7.11,1111122 
SCCF RECON,ioos:station:SCCF:18:1,2017-03-04T15:00:00Z,26.6955,-81.8138,1.08,7.29,1111122 
SCCF RECON,ioos:station:SCCF:18:1,2017-03-04T16:00:00Z,26.6955,-81.8138,1.046,7.49,1111122 
SCCF RECON,ioos:station:SCCF:18:1,2017-03-04T17:00:00Z,26.6955,-81.8138,0.989,7.45,1111122 
SCCF RECON,ioos:station:SCCF:18:1,2017-03-04T18:00:00Z,26.6955,-81.8138,0.949,7.42,1111122 
SCCF RECON,ioos:station:SCCF:18:1,2017-03-04T19:00:00Z,26.6955,-81.8138,0.94,7.82,1111122 
SCCF RECON,ioos:station:SCCF:18:1,2017-03-04T20:00:00Z,26.6955,-81.8138,0.932,7.84,1111122 
SCCF RECON,ioos:station:SCCF:18:1,2017-03-04T21:00:00Z,26.6955,-81.8138,0.975,7.35,1111122 
SCCF RECON,ioos:station:SCCF:18:1,2017-03-04T22:00:00Z,26.6955,-81.8138,1.021,7.52,1111122 
SCCF RECON,ioos:station:SCCF:18:1,2017-03-04T23:00:00Z,26.6955,-81.8138,1.083,7.49,1111122 
SCCF RECON,ioos:station:SCCF:18:1,2017-03-05T00:00:00Z,26.6955,-81.8138,1.135,7.49,1111122 
SCCF RECON,ioos:station:SCCF:18:1,2017-03-05T01:00:00Z,26.6955,-81.8138,1.2,7.59,1111122 
SCCF RECON,ioos:station:SCCF:18:1,2017-03-05T02:00:00Z,26.6955,-81.8138,1.26,7.62,1111122 
SCCF RECON,ioos:station:SCCF:18:1,2017-03-05T03:00:00Z,26.6955,-81.8138,1.27,7.88,1111122 
SCCF RECON,ioos:station:SCCF:18:1,2017-03-05T04:00:00Z,26.6955,-81.8138,1.23,7.89,1111122 
SCCF RECON,ioos:station:SCCF:18:1,2017-03-05T05:00:00Z,26.6955,-81.8138,1.18,7.8,1111122 
SCCF RECON,ioos:station:SCCF:18:1,2017-03-05T06:00:00Z,26.6955,-81.8138,1.135,7.8,1111122 
SCCF RECON,ioos:station:SCCF:18:1,2017-03-05T07:00:00Z,26.6955,-81.8138,1.1,7.81,1111122 
SCCF RECON,ioos:station:SCCF:18:1,2017-03-05T08:00:00Z,26.6955,-81.8138,1.06,7.8,1111122 
SCCF RECON,ioos:station:SCCF:18:1,2017-03-05T09:00:00Z,26.6955,-81.8138,1.025,7.78,1111122 
SCCF RECON,ioos:station:SCCF:18:1,2017-03-05T10:00:00Z,26.6955,-81.8138,1.005,7.73,1111122 
SCCF RECON,ioos:station:SCCF:18:1,2017-03-05T11:00:00Z,26.6955,-81.8138,1.034,7.42,1111122 
SCCF RECON,ioos:station:SCCF:18:1,2017-03-05T12:00:00Z,26.6955,-81.8138,1.1,7.47,1111122 
SCCF RECON,ioos:station:SCCF:18:1,2017-03-05T13:00:00Z,26.6955,-81.8138,1.16,7.21,1111122 
SCCF RECON,ioos:station:SCCF:18:1,2017-03-05T14:00:00Z,26.6955,-81.8138,1.2,7.1,1111122 
SCCF RECON,ioos:station:SCCF:18:1,2017-03-05T15:00:00Z,26.6955,-81.8138,1.211,7.34,1111122 
SCCF RECON,ioos:station:SCCF:18:1,2017-03-05T16:00:00Z,26.6955,-81.8138,1.205,7.93,1111122 
SCCF RECON,ioos:station:SCCF:18:1,2017-03-05T17:00:00Z,26.6955,-81.8138,1.159,8.01,1111122 
SCCF RECON,ioos:station:SCCF:18:1,2017-03-05T18:00:00Z,26.6955,-81.8138,1.116,8.16,1111122 
SCCF RECON,ioos:station:SCCF:18:1,2017-03-05T19:00:00Z,26.6955,-81.8138,1.082,8.23,1111122 
SCCF RECON,ioos:station:SCCF:18:1,2017-03-05T20:00:00Z,26.6955,-81.8138,1.074,8.05,1111122 
SCCF RECON,ioos:station:SCCF:18:1,2017-03-05T21:00:00Z,26.6955,-81.8138,1.11,7.9,1111122 
SCCF RECON,ioos:station:SCCF:18:1,2017-03-05T22:00:00Z,26.6955,-81.8138,1.153,7.86,1111122 
SCCF RECON,ioos:station:SCCF:18:1,2017-03-05T23:00:00Z,26.6955,-81.8138,1.206,8.01,1111122 
SCCF RECON,ioos:station:SCCF:18:1,2017-03-06T00:00:00Z,26.6955,-81.8138,1.269,8.12,1111122 
SCCF RECON,ioos:station:SCCF:18:1,2017-03-06T01:00:00Z,26.6955,-81.8138,1.345,7.91,1111122 
SCCF RECON,ioos:station:SCCF:18:1,2017-03-06T02:00:00Z,26.6955,-81.8138,1.412,8.07,1111122 
SCCF RECON,ioos:station:SCCF:18:1,2017-03-06T03:00:00Z,26.6955,-81.8138,1.45,7.83,1111122 
SCCF RECON,ioos:station:SCCF:18:1,2017-03-06T04:00:00Z,26.6955,-81.8138,1.44,8.17,1111122 
SCCF RECON,ioos:station:SCCF:18:1,2017-03-06T05:00:00Z,26.6955,-81.8138,1.39,8.29,1111122 
SCCF RECON,ioos:station:SCCF:18:1,2017-03-06T06:00:00Z,26.6955,-81.8138,1.33,8.28,1111122 
SCCF RECON,ioos:station:SCCF:18:1,2017-03-06T07:00:00Z,26.6955,-81.8138,1.27,8.14,1111122 
SCCF RECON,ioos:station:SCCF:18:1,2017-03-06T08:00:00Z,26.6955,-81.8138,1.23,8.15,1111122 
SCCF RECON,ioos:station:SCCF:18:1,2017-03-06T09:00:00Z,26.6955,-81.8138,1.19,8.16,1111122 
SCCF RECON,ioos:station:SCCF:18:1,2017-03-06T10:00:00Z,26.6955,-81.8138,1.14,8.12,1111122 
SCCF RECON,ioos:station:SCCF:18:1,2017-03-06T11:00:00Z,26.6955,-81.8138,1.11,8.06,1111122 
SCCF RECON,ioos:station:SCCF:18:1,2017-03-06T12:00:00Z,26.6955,-81.8138,1.114,7.73,1111122 
SCCF RECON,ioos:station:SCCF:18:1,2017-03-06T13:00:00Z,26.6955,-81.8138,1.17,7.82,1111122 
SCCF RECON,ioos:station:SCCF:18:1,2017-03-06T14:00:00Z,26.6955,-81.8138,1.23,7.84,1111122 
SCCF RECON,ioos:station:SCCF:18:1,2017-03-06T15:00:00Z,26.6955,-81.8138,1.268,7.88,1111122 
SCCF RECON,ioos:station:SCCF:18:1,2017-03-06T16:00:00Z,26.6955,-81.8138,1.286,8.18,1111122 
SCCF RECON,ioos:station:SCCF:18:1,2017-03-06T17:00:00Z,26.6955,-81.8138,1.31,7.99,1111122 
SCCF RECON,ioos:station:SCCF:18:1,2017-03-06T18:00:00Z,26.6955,-81.8138,1.321,8.3,1111122 
SCCF RECON,ioos:station:SCCF:18:1,2017-03-06T19:00:00Z,26.6955,-81.8138,1.31,8.55,1111122 
SCCF RECON,ioos:station:SCCF:18:1,2017-03-06T20:00:00Z,26.6955,-81.8138,1.29,8.54,1111122 
SCCF RECON,ioos:station:SCCF:18:1,2017-03-06T21:00:00Z,26.6955,-81.8138,1.298,8.36,1111122 
SCCF RECON,ioos:station:SCCF:18:1,2017-03-06T22:00:00Z,26.6955,-81.8138,1.316,8.22,1111122 
SCCF RECON,ioos:station:SCCF:18:1,2017-03-06T23:00:00Z,26.6955,-81.8138,1.378,8.29,1111122 
SCCF RECON,ioos:station:SCCF:18:1,2017-03-07T00:00:00Z,26.6955,-81.8138,1.446,8.31,1111122 
SCCF RECON,ioos:station:SCCF:18:1,2017-03-07T01:00:00Z,26.6955,-81.8138,1.519,8.27,1111122 
SCCF RECON,ioos:station:SCCF:18:1,2017-03-07T02:00:00Z,26.6955,-81.8138,1.564,8.21,1111122 
SCCF RECON,ioos:station:SCCF:18:1,2017-03-07T03:00:00Z,26.6955,-81.8138,1.61,8.33,1111122 
SCCF RECON,ioos:station:SCCF:18:1,2017-03-07T04:00:00Z,26.6955,-81.8138,1.629,8.27,1111122 
SCCF RECON,ioos:station:SCCF:18:1,2017-03-07T05:00:00Z,26.6955,-81.8138,1.58,8.54,1111122 
SCCF RECON,ioos:station:SCCF:18:1,2017-03-07T06:00:00Z,26.6955,-81.8138,1.5,8.47,1111122 
SCCF RECON,ioos:station:SCCF:18:1,2017-03-07T07:00:00Z,26.6955,-81.8138,1.439,8.43,1111122 
SCCF RECON,ioos:station:SCCF:18:1,2017-03-07T08:00:00Z,26.6955,-81.8138,1.39,8.38,1111122 
SCCF RECON,ioos:station:SCCF:18:1,2017-03-07T09:00:00Z,26.6955,-81.8138,1.34,8.34,1111122 
SCCF RECON,ioos:station:SCCF:18:1,2017-03-07T10:00:00Z,26.6955,-81.8138,1.29,8.3,1111122 
SCCF RECON,ioos:station:SCCF:18:1,2017-03-07T11:00:00Z,26.6955,-81.8138,1.25,8.19,1111122 
SCCF RECON,ioos:station:SCCF:18:1,2017-03-07T12:00:00Z,26.6955,-81.8138,1.23,8.09,1111122 
SCCF RECON,ioos:station:SCCF:18:1,2017-03-07T13:00:00Z,26.6955,-81.8138,1.23,8.0,1111122 
SCCF RECON,ioos:station:SCCF:18:1,2017-03-07T14:00:00Z,26.6955,-81.8138,1.27,7.85,1111122 
SCCF RECON,ioos:station:SCCF:18:1,2017-03-07T15:00:00Z,26.6955,-81.8138,1.319,8.03,1111122 
SCCF RECON,ioos:station:SCCF:18:1,2017-03-07T16:00:00Z,26.6955,-81.8138,1.37,8.27,1111122 
SCCF RECON,ioos:station:SCCF:18:1,2017-03-07T17:00:00Z,26.6955,-81.8138,1.409,8.23,1111122 
SCCF RECON,ioos:station:SCCF:18:1,2017-03-07T18:00:00Z,26.6955,-81.8138,1.43,7.92,1111122 
SCCF RECON,ioos:station:SCCF:18:1,2017-03-07T19:00:00Z,26.6955,-81.8138,1.448,8.1,1111122 
SCCF RECON,ioos:station:SCCF:18:1,2017-03-07T20:00:00Z,26.6955,-81.8138,1.422,8.68,1111122 
SCCF RECON,ioos:station:SCCF:18:1,2017-03-07T21:00:00Z,26.6955,-81.8138,1.41,8.64,1111122 
SCCF RECON,ioos:station:SCCF:18:1,2017-03-07T22:00:00Z,26.6955,-81.8138,1.44,8.58,1111122 
SCCF RECON,ioos:station:SCCF:18:1,2017-03-07T23:00:00Z,26.6955,-81.8138,1.49,8.48,1111122 
SCCF RECON,ioos:station:SCCF:18:1,2017-03-08T00:00:00Z,26.6955,-81.8138,1.53,8.42,1111122 
SCCF RECON,ioos:station:SCCF:18:1,2017-03-08T01:00:00Z,26.6955,-81.8138,1.564,8.39,1111122 
SCCF RECON,ioos:station:SCCF:18:1,2017-03-08T02:00:00Z,26.6955,-81.8138,1.61,8.4,1111122 
SCCF RECON,ioos:station:SCCF:18:1,2017-03-08T03:00:00Z,26.6955,-81.8138,1.67,8.31,1111122 
SCCF RECON,ioos:station:SCCF:18:1,2017-03-08T04:00:00Z,26.6955,-81.8138,1.711,8.25,1111122 
SCCF RECON,ioos:station:SCCF:18:1,2017-03-08T05:00:00Z,26.6955,-81.8138,1.741,8.16,1111122 
SCCF RECON,ioos:station:SCCF:18:1,2017-03-08T06:00:00Z,26.6955,-81.8138,1.711,8.44,1111122 
SCCF RECON,ioos:station:SCCF:18:1,2017-03-08T07:00:00Z,26.6955,-81.8138,1.63,8.45,1111122 
SCCF RECON,ioos:station:SCCF:18:1,2017-03-08T08:00:00Z,26.6955,-81.8138,1.55,8.36,1111122 
SCCF RECON,ioos:station:SCCF:18:1,2017-03-08T09:00:00Z,26.6955,-81.8138,1.49,8.36,1111122 
SCCF RECON,ioos:station:SCCF:18:1,2017-03-08T10:00:00Z,26.6955,-81.8138,1.442,8.32,1111122 
SCCF RECON,ioos:station:SCCF:18:1,2017-03-08T11:00:00Z,26.6955,-81.8138,1.39,8.17,1111122 
SCCF RECON,ioos:station:SCCF:18:1,2017-03-08T12:00:00Z,26.6955,-81.8138,1.34,8.13,1111122 
SCCF RECON,ioos:station:SCCF:18:1,2017-03-08T13:00:00Z,26.6955,-81.8138,1.299,8.03,1111122 
SCCF RECON,ioos:station:SCCF:18:1,2017-03-08T14:00:00Z,26.6955,-81.8138,1.28,8.02,1111122 
SCCF RECON,ioos:station:SCCF:18:1,2017-03-08T15:00:00Z,26.6955,-81.8138,1.302,7.83,1111122 
SCCF RECON,ioos:station:SCCF:18:1,2017-03-08T16:00:00Z,26.6955,-81.8138,1.37,8.12,1111122 
SCCF RECON,ioos:station:SCCF:18:1,2017-03-08T17:00:00Z,26.6955,-81.8138,1.42,8.05,1111122 
SCCF RECON,ioos:station:SCCF:18:1,2017-03-08T18:00:00Z,26.6955,-81.8138,1.44,7.93,1111122 
SCCF RECON,ioos:station:SCCF:18:1,2017-03-08T19:00:00Z,26.6955,-81.8138,1.448,7.88,1111122 
SCCF RECON,ioos:station:SCCF:18:1,2017-03-08T20:00:00Z,26.6955,-81.8138,1.472,8.18,1111122 
SCCF RECON,ioos:station:SCCF:18:1,2017-03-08T21:00:00Z,26.6955,-81.8138,1.48,8.57,1111122 
SCCF RECON,ioos:station:SCCF:18:1,2017-03-08T22:00:00Z,26.6955,-81.8138,1.47,8.52,1111122 
SCCF RECON,ioos:station:SCCF:18:1,2017-03-08T23:00:00Z,26.6955,-81.8138,1.44,8.57,1111122 
SCCF RECON,ioos:station:SCCF:18:1,2017-03-09T00:00:00Z,26.6955,-81.8138,1.411,8.36,1111122 
SCCF RECON,ioos:station:SCCF:18:1,2017-03-09T01:00:00Z,26.6955,-81.8138,1.413,8.35,1111122 
SCCF RECON,ioos:station:SCCF:18:1,2017-03-09T02:00:00Z,26.6955,-81.8138,1.46,8.12,1111122 
SCCF RECON,ioos:station:SCCF:18:1,2017-03-09T03:00:00Z,26.6955,-81.8138,1.533,8.05,1111122 
SCCF RECON,ioos:station:SCCF:18:1,2017-03-09T04:00:00Z,26.6955,-81.8138,1.598,7.72,1111122 
SCCF RECON,ioos:station:SCCF:18:1,2017-03-09T05:00:00Z,26.6955,-81.8138,1.63,7.9,1111122 
SCCF RECON,ioos:station:SCCF:18:1,2017-03-09T06:00:00Z,26.6955,-81.8138,1.667,7.85,1111122 
SCCF RECON,ioos:station:SCCF:18:1,2017-03-09T07:00:00Z,26.6955,-81.8138,1.66,7.69,1111122 
SCCF RECON,ioos:station:SCCF:18:1,2017-03-09T08:00:00Z,26.6955,-81.8138,1.59,8.15,1111122 
SCCF RECON,ioos:station:SCCF:18:1,2017-03-09T09:00:00Z,26.6955,-81.8138,1.5,8.27,1111122 
SCCF RECON,ioos:station:SCCF:18:1,2017-03-09T10:00:00Z,26.6955,-81.8138,1.444,7.85,1111122 
SCCF RECON,ioos:station:SCCF:18:1,2017-03-09T11:00:00Z,26.6955,-81.8138,1.406,7.86,1111122 
SCCF RECON,ioos:station:SCCF:18:1,2017-03-09T12:00:00Z,26.6955,-81.8138,1.358,7.98,1111122 
SCCF RECON,ioos:station:SCCF:18:1,2017-03-09T13:00:00Z,26.6955,-81.8138,1.302,7.93,1111122 
SCCF RECON,ioos:station:SCCF:18:1,2017-03-09T14:00:00Z,26.6955,-81.8138,1.26,7.96,1111122 
SCCF RECON,ioos:station:SCCF:18:1,2017-03-09T15:00:00Z,26.6955,-81.8138,1.247,7.89,1111122 
SCCF RECON,ioos:station:SCCF:18:1,2017-03-09T16:00:00Z,26.6955,-81.8138,1.28,7.67,1111122 
SCCF RECON,ioos:station:SCCF:18:1,2017-03-09T17:00:00Z,26.6955,-81.8138,1.35,7.88,1111122 
SCCF RECON,ioos:station:SCCF:18:1,2017-03-09T18:00:00Z,26.6955,-81.8138,1.395,7.56,1111122 
SCCF RECON,ioos:station:SCCF:18:1,2017-03-09T19:00:00Z,26.6955,-81.8138,1.43,7.84,1111122 
SCCF RECON,ioos:station:SCCF:18:1,2017-03-09T20:00:00Z,26.6955,-81.8138,1.44,7.9,1111122 
SCCF RECON,ioos:station:SCCF:18:1,2017-03-09T21:00:00Z,26.6955,-81.8138,1.445,7.72,1111122 
SCCF RECON,ioos:station:SCCF:18:1,2017-03-09T22:00:00Z,26.6955,-81.8138,1.41,8.36,1111122 
SCCF RECON,ioos:station:SCCF:18:1,2017-03-09T23:00:00Z,26.6955,-81.8138,1.36,8.14,1111122 
SCCF RECON,ioos:station:SCCF:18:1,2017-03-10T00:00:00Z,26.6955,-81.8138,1.31,8.03,1111122 
SCCF RECON,ioos:station:SCCF:18:1,2017-03-10T01:00:00Z,26.6955,-81.8138,1.278,7.97,1111122 
SCCF RECON,ioos:station:SCCF:18:1,2017-03-10T02:00:00Z,26.6955,-81.8138,1.297,7.6,1111122 
SCCF RECON,ioos:station:SCCF:18:1,2017-03-10T03:00:00Z,26.6955,-81.8138,1.37,7.88,1111122 
SCCF RECON,ioos:station:SCCF:18:1,2017-03-10T04:00:00Z,26.6955,-81.8138,1.442,7.52,1111122 
SCCF RECON,ioos:station:SCCF:18:1,2017-03-10T05:00:00Z,26.6955,-81.8138,1.491,7.5,1111122 
SCCF RECON,ioos:station:SCCF:18:1,2017-03-10T06:00:00Z,26.6955,-81.8138,1.53,7.41,1111122 
SCCF RECON,ioos:station:SCCF:18:1,2017-03-10T07:00:00Z,26.6955,-81.8138,1.569,7.39,1111122 
SCCF RECON,ioos:station:SCCF:18:1,2017-03-10T08:00:00Z,26.6955,-81.8138,1.584,7.21,1111122 
SCCF RECON,ioos:station:SCCF:18:1,2017-03-10T09:00:00Z,26.6955,-81.8138,1.52,7.57,1111122 
SCCF RECON,ioos:station:SCCF:18:1,2017-03-10T10:00:00Z,26.6955,-81.8138,1.44,7.6,1111122 
SCCF RECON,ioos:station:SCCF:18:1,2017-03-10T11:00:00Z,26.6955,-81.8138,1.38,7.84,1111122 
SCCF RECON,ioos:station:SCCF:18:1,2017-03-10T12:00:00Z,26.6955,-81.8138,1.343,7.6,1111122 
SCCF RECON,ioos:station:SCCF:18:1,2017-03-10T13:00:00Z,26.6955,-81.8138,1.31,7.64,1111122 
SCCF RECON,ioos:station:SCCF:18:1,2017-03-10T14:00:00Z,26.6955,-81.8138,1.26,7.54,1111122 
SCCF RECON,ioos:station:SCCF:18:1,2017-03-10T15:00:00Z,26.6955,-81.8138,1.22,7.24,1111122 
SCCF RECON,ioos:station:SCCF:18:1,2017-03-10T16:00:00Z,26.6955,-81.8138,1.253,6.9,1111122 
SCCF RECON,ioos:station:SCCF:18:1,2017-03-10T17:00:00Z,26.6955,-81.8138,1.334,7.19,1111122 
SCCF RECON,ioos:station:SCCF:18:1,2017-03-10T18:00:00Z,26.6955,-81.8138,1.409,7.06,1111122 
SCCF RECON,ioos:station:SCCF:18:1,2017-03-10T19:00:00Z,26.6955,-81.8138,1.45,7.03,1111122 
SCCF RECON,ioos:station:SCCF:18:1,2017-03-10T20:00:00Z,26.6955,-81.8138,1.485,7.06,1111122 
SCCF RECON,ioos:station:SCCF:18:1,2017-03-10T21:00:00Z,26.6955,-81.8138,1.508,6.86,1111122 
SCCF RECON,ioos:station:SCCF:18:1,2017-03-10T22:00:00Z,26.6955,-81.8138,1.458,7.79,1111122 
SCCF RECON,ioos:station:SCCF:18:1,2017-03-10T23:00:00Z,26.6955,-81.8138,1.381,7.72,1111122 
SCCF RECON,ioos:station:SCCF:18:1,2017-03-11T00:00:00Z,26.6955,-81.8138,1.33,7.66,1111122 
SCCF RECON,ioos:station:SCCF:18:1,2017-03-11T01:00:00Z,26.6955,-81.8138,1.298,7.75,1111122 
SCCF RECON,ioos:station:SCCF:18:1,2017-03-11T02:00:00Z,26.6955,-81.8138,1.27,7.61,1111122 
SCCF RECON,ioos:station:SCCF:18:1,2017-03-11T03:00:00Z,26.6955,-81.8138,1.256,7.43,1111122 
SCCF RECON,ioos:station:SCCF:18:1,2017-03-11T04:00:00Z,26.6955,-81.8138,1.32,6.92,1111122 
SCCF RECON,ioos:station:SCCF:18:1,2017-03-11T05:00:00Z,26.6955,-81.8138,1.4,6.72,1111122 
SCCF RECON,ioos:station:SCCF:18:1,2017-03-11T06:00:00Z,26.6955,-81.8138,1.48,6.49,1111122 
SCCF RECON,ioos:station:SCCF:18:1,2017-03-11T07:00:00Z,26.6955,-81.8138,1.522,6.5,1111122 
SCCF RECON,ioos:station:SCCF:18:1,2017-03-11T08:00:00Z,26.6955,-81.8138,1.56,6.46,1111122 
SCCF RECON,ioos:station:SCCF:18:1,2017-03-11T09:00:00Z,26.6955,-81.8138,1.543,6.79,1111122 
SCCF RECON,ioos:station:SCCF:18:1,2017-03-11T10:00:00Z,26.6955,-81.8138,1.47,7.4,1111122 
SCCF RECON,ioos:station:SCCF:18:1,2017-03-11T11:00:00Z,26.6955,-81.8138,1.393,7.3,1111122 
SCCF RECON,ioos:station:SCCF:18:1,2017-03-11T12:00:00Z,26.6955,-81.8138,1.34,7.43,1111122 
SCCF RECON,ioos:station:SCCF:18:1,2017-03-11T13:00:00Z,26.6955,-81.8138,1.303,7.34,1111122 
SCCF RECON,ioos:station:SCCF:18:1,2017-03-11T14:00:00Z,26.6955,-81.8138,1.25,7.66,1111122 
SCCF RECON,ioos:station:SCCF:18:1,2017-03-11T15:00:00Z,26.6955,-81.8138,1.193,7.8,1111122 
SCCF RECON,ioos:station:SCCF:18:1,2017-03-11T16:00:00Z,26.6955,-81.8138,1.16,7.8,1111122 
SCCF RECON,ioos:station:SCCF:18:1,2017-03-11T17:00:00Z,26.6955,-81.8138,1.188,7.9,1111122 
SCCF RECON,ioos:station:SCCF:18:1,2017-03-11T18:00:00Z,26.6955,-81.8138,1.263,7.83,1111122 
SCCF RECON,ioos:station:SCCF:18:1,2017-03-11T19:00:00Z,26.6955,-81.8138,1.335,7.28,1111122 
SCCF RECON,ioos:station:SCCF:18:1,2017-03-11T20:00:00Z,26.6955,-81.8138,1.37,8.47,1111122 